Main page
METAR-TAF:

METAR-TAF

Airports :

Iranshahr, Iran

latitude: 27-12N, longitude: 060-42E, elevation: 591 m

Current weather observation

The report was made 38 minutes ago, at 11:00 UTC
Wind 8 kt from the East/Northeast
Temperature 44°C
Humidity 23%
Pressure 998 hPa
Visibility: 8000 m
Few clouds at a height of 3500 ft, Cumulonimbus.
Scattered clouds at a height of 4000 ft, Towering cumulus.

METAR: OIZI 181100Z 07008KT 8000 FEW035CB SCT040TCU 44/18 Q0998

Time: 16:08 (11:38 UTC)


TAF: missing

Weather observations and forecasts of more than 4000 airports (METAR and TAF reports).

The available stations are represented by yellow and red dots on the map.

Hover mouse over dot to see the name of the station.

Then click to see weather observations and forecasts.

To change the map : click on the green buttons with a black cross to zoom in, on the green button with a dash to zoom out, or on the green arrows for adjacent maps.


METAR-TAF: